Content
SEND FEEDBACK

Daily
Averages
Monthly
Summary
Mexico

ISLA MUJERES, QUINTANA ROO


Home > North America > Mexico > Quintana Roo
Elevation: 16 feet     Latitude: 21 14N     Longitude: 086 44W

WEATHER
 
SELECT A DAY
Number of Records: 164,004;   Date Range: 1/1/95 - 9/22/14
 
SHARE

PRINT THIS DATA

[ ← Previous Day ]
WEATHER ALMANAC - JANUARY 8, 2014
[ Next Day → ]
[ °C ]   °F
Weather ElementAverageHighLow
Temperature68.3 °F69.8 °F (1:40 am)66.2 °F (4:50 am)
Dewpoint65.2 °F69.8 °F (10:47 pm)60.8 °F (1:40 am)
Humidity90.3 %100 % (4:41 pm)73 % (1:40 am)
Barometer30.15 in30.23 in (9:51 am)30.06 in (11:46 pm)
Wind Speed7.1 mph12.7 mph (7:42 am)
Weather ElementAverage
Visibility4.3 mi
Wind DirectionSSW (217.9 °)

Weather ElementTotal
Precipitation---
Cooling Degree Days3 (Base 65)
Growing Degree Days18 (Base 50)
Averaged from 24 records on January 8, 2014
WEATHER CONDITIONS BREAKOUT
WIND DIRECTION BREAKOUT
WEATHER BY HOUR - JANUARY 8, 2014
[ °C ]   °F
Local TimeTemperatureDewpointHumidityBarometerVisibilityWind DirectionWind SpeedGust SpeedPrecipitationEventsConditions
1:40 AM69.8 °F60.8 °F73 %30.18 in6.0 miNNE (20°)8.1 mphMostly Cloudy
2:49 AM68.0 °F60.8 °F78 %30.13 in6.0 miNNE (30°)6.9 mphMostly Cloudy
3:42 AM68.0 °F60.8 °F78 %30.16 in6.0 miNorth (10°)5.8 mphMostly Cloudy
4:50 AM66.2 °F60.8 °F83 %30.16 in6.0 miNorth (360°)3.5 mphMostly Cloudy
5:47 AM68.0 °F60.8 °F78 %30.13 in6.0 miNNE (20°)5.8 mphOvercast
6:46 AM68.0 °F62.6 °F83 %30.19 in7.0 miNorth (360°)8.1 mphOvercast
7:42 AM68.0 °F62.6 °F83 %30.21 in7.0 miNNE (30°)12.7 mphMostly Cloudy
8:44 AM69.8 °F64.4 °F83 %30.20 in7.0 miNNE (20°)12.7 mphOvercast
9:51 AM69.8 °F64.4 °F83 %30.23 in4.0 miNNE (30°)6.9 mphRainLight Rain
10:47 AM68.0 °F66.2 °F94 %30.22 in5.0 miNorth (10°)4.6 mphRainLight Rain
10:54 AM68.0 °F66.2 °F94 %30.22 in2.0 miNorth (350°)4.6 mphRainRain
11:44 AM68.0 °F66.2 °F94 %30.17 in4.0 miNNW (340°)9.2 mphRainRain
12:41 PM68.0 °F66.2 °F94 %30.15 in2.0 miNorth (10°)10.4 mphRainLight Rain
1:45 PM68.0 °F66.2 °F94 %30.13 in2.0 miNNW (340°)9.2 mphRainLight Rain
2:40 PM68.0 °F66.2 °F94 %30.10 in5.0 miNNW (340°)8.1 mphOvercast
3:42 PM68.0 °F66.2 °F94 %30.12 in1.0 miNNW (330°)9.2 mphRainLight Rain
4:41 PM66.2 °F66.2 °F100 %30.12 in2.0 miNNW (330°)6.9 mphRainLight Rain
5:41 PM66.2 °F66.2 °F100 %30.10 in2.0 miNNW (330°)4.6 mphRainLight Rain
6:45 PM68.0 °F68.0 °F100 %30.13 in3.0 miNNW (340°)6.9 mphRainLight Rain
7:41 PM68.0 °F68.0 °F100 %30.14 in3.0 miNNW (340°)3.5 mphRainLight Rain
8:46 PM69.8 °F68.0 °F94 %30.11 in4.0 miNW (320°)5.8 mphRainLight Rain
9:48 PM69.8 °F68.0 °F94 %30.14 in4.0 miNW (320°)5.8 mphRainLight Rain
10:47 PM69.8 °F69.8 °F100 %30.12 in4.0 miNW (320°)5.8 mphRainLight Rain
11:46 PM69.8 °F69.8 °F100 %30.06 in4.0 miNNW (330°)5.8 mphRainLight Rain
Hourly data recorded from MMUN, located miles away from Isla Mujeres, Quintana Roo







STORIES FROM OUR PARTNERS